Date String (YYYY-MM-DD hh:mm:ss) UTC,Instrument flags,Ambient pressure (hPa),Sample flow (lpm),Bypass flow (lpm),Sample temperature (°C),Ambient temperature (°C),ASC tube jacket temperature (°C),LED temperature (°C),Box temperature (°C),Sample RH (%),Span deviation,Mass concentration (μg/m³),Mass concentration (μg/m³),Mass concentration (μg/m³)
DateTimeUTC,F1_M11,P_M11,Q1_M11,Q2_M11,T1_M11,T2_M11,T3_M11,T4_M11,T5_M11,U1_M11,ZSPAN_M11,X0_M11,X2_M11,X1_M11
2022-07-04 11:00:00,,0824.8,5.01,0.00,29.8,27.6,00.0,38.7,31.5,25.5,0000.0,0005.80,0003.25,0002.65
2022-07-04 11:01:00,,0824.8,5.00,0.00,29.8,27.7,00.0,38.7,31.5,25.5,0000.0,0005.79,0003.25,0002.65
2022-07-04 11:02:00,,0824.8,5.01,0.00,29.8,27.9,00.0,38.7,31.5,25.5,0000.0,0006.32,0003.25,0002.64
2022-07-04 11:03:00,,0824.8,4.99,0.00,29.8,28.0,00.0,38.7,31.5,25.5,0000.0,0006.87,0003.26,0002.64
2022-07-04 11:04:00,,0824.8,4.99,0.00,29.8,28.1,00.0,38.6,31.6,25.4,0000.0,0006.76,0003.23,0002.64
2022-07-04 11:05:00,,0824.9,5.00,0.00,29.8,28.2,00.0,38.6,31.6,25.4,0000.0,0007.02,0003.25,0002.63
2022-07-04 11:06:00,,0824.9,5.00,0.00,29.8,28.3,00.0,38.6,31.6,25.4,0000.0,0007.02,0003.26,0002.64
2022-07-04 11:07:00,,0824.9,5.00,0.00,29.8,28.4,00.0,38.6,31.6,25.4,0000.0,0007.04,0003.29,0002.65
2022-07-04 11:08:00,,0824.9,5.00,0.00,29.8,28.5,00.0,38.6,31.7,25.4,0000.0,0006.78,0003.25,0002.66
2022-07-04 11:09:00,,0824.9,5.01,0.00,29.8,28.5,00.0,38.6,31.7,25.5,0000.0,0006.59,0003.24,0002.66
2022-07-04 11:10:00,,0824.9,5.01,0.00,29.8,28.6,00.0,38.6,31.7,25.3,0000.0,0006.44,0003.27,0002.67
2022-07-04 11:11:00,,0824.9,5.01,0.00,29.8,28.6,00.0,38.6,31.7,25.3,0000.0,0006.34,0003.27,0002.68
2022-07-04 11:12:00,,0824.9,5.01,0.00,29.8,28.7,00.0,38.6,31.7,25.3,0000.0,0006.56,0003.31,0002.68
2022-07-04 11:13:00,,0824.9,5.00,0.00,29.8,28.7,00.0,38.6,31.7,25.3,0000.0,0006.06,0003.32,0002.68
2022-07-04 11:14:00,,0824.9,5.00,0.00,29.8,28.7,00.0,38.7,31.7,25.3,0000.0,0005.38,0003.30,0002.66
2022-07-04 11:15:00,,0825.0,5.00,0.00,29.8,28.7,00.0,38.7,31.7,25.4,0000.0,0005.46,0003.31,0002.65
2022-07-04 11:16:00,,0825.1,5.00,0.00,29.9,28.7,00.0,38.7,31.7,25.4,0000.0,0005.43,0003.31,0002.65
2022-07-04 11:17:00,,0825.1,5.00,0.00,29.9,28.8,00.0,38.7,31.8,25.5,0000.0,0005.69,0003.33,0002.66
2022-07-04 11:18:00,,0825.1,5.01,0.00,29.9,28.8,00.0,38.7,31.8,25.5,0000.0,0005.69,0003.31,0002.65
2022-07-04 11:19:00,,0825.1,5.01,0.00,29.9,28.8,00.0,38.7,31.8,25.6,0000.0,0005.84,0003.34,0002.66
2022-07-04 11:20:00,,0825.1,4.99,0.00,29.9,28.8,00.0,38.7,31.8,25.8,0000.0,0005.84,0003.35,0002.68
2022-07-04 11:21:00,,0825.1,5.00,0.00,29.9,28.9,00.0,38.7,31.8,25.9,0000.0,0005.84,0003.32,0002.68
2022-07-04 11:22:00,,0825.1,4.99,0.00,29.9,28.9,00.0,38.7,31.8,26.0,0000.0,0006.49,0003.32,0002.67
2022-07-04 11:23:00,,0825.1,5.00,0.00,29.9,28.9,00.0,38.7,31.8,26.0,0000.0,0006.76,0003.28,0002.67
2022-07-04 11:24:00,,0825.1,5.01,0.00,29.9,28.9,00.0,38.8,31.8,26.0,0000.0,0007.06,0003.31,0002.66
2022-07-04 11:25:00,,0825.1,5.00,0.00,30.0,28.9,00.0,38.8,31.8,25.9,0000.0,0007.08,0003.31,0002.68
2022-07-04 11:26:00,,0825.2,4.99,0.00,30.0,28.9,00.0,38.8,31.8,26.0,0000.0,0007.18,0003.35,0002.71
2022-07-04 11:27:00,,0825.2,5.00,0.00,30.0,28.9,00.0,38.8,31.9,25.9,0000.0,0007.27,0003.40,0002.74
2022-07-04 11:28:00,,0825.2,5.00,0.00,30.0,28.9,00.0,38.8,31.9,26.0,0000.0,0007.10,0003.42,0002.75
2022-07-04 11:29:00,,0825.2,5.01,0.00,30.0,29.0,00.0,38.8,31.9,26.0,0000.0,0007.10,0003.44,0002.76
2022-07-04 11:30:00,,0825.2,5.01,0.00,30.0,29.0,00.0,38.8,31.9,26.0,0000.0,0007.03,0003.43,0002.76
2022-07-04 11:31:00,,0825.2,5.00,0.00,30.0,29.0,00.0,38.8,31.9,26.0,0000.0,0007.13,0003.44,0002.76
2022-07-04 11:32:00,,0825.2,4.98,0.00,30.0,29.0,00.0,38.8,31.9,26.1,0000.0,0007.20,0003.43,0002.76
2022-07-04 11:33:00,,0825.2,5.00,0.00,30.0,29.0,00.0,38.8,31.9,26.1,0000.0,0006.85,0003.41,0002.75
2022-07-04 11:34:00,,0825.2,5.00,0.00,30.0,29.0,00.0,38.8,31.9,26.0,0000.0,0006.52,0003.42,0002.75
2022-07-04 11:35:00,,0825.2,5.00,0.00,30.0,29.0,00.0,38.8,31.9,26.0,0000.0,0006.52,0003.43,0002.78
2022-07-04 11:36:00,,0825.1,5.00,0.00,30.0,29.0,00.0,38.8,31.9,26.0,0000.0,0006.61,0003.43,0002.78
2022-07-04 11:37:00,,0825.1,5.00,0.00,30.0,29.0,00.0,38.8,31.9,25.9,0000.0,0006.43,0003.40,0002.77
2022-07-04 11:38:00,,0825.1,4.99,0.00,30.0,29.0,00.0,38.9,31.9,25.8,0000.0,0006.20,0003.34,0002.76
2022-07-04 11:39:00,,0825.0,4.99,0.00,30.0,29.0,00.0,38.9,31.9,25.8,0000.0,0006.10,0003.31,0002.74
2022-07-04 11:40:00,,0825.1,5.00,0.00,30.1,29.0,00.0,38.9,31.9,25.6,0000.0,0006.01,0003.29,0002.72
2022-07-04 11:41:00,,0825.0,4.99,0.00,30.1,29.1,00.0,38.9,32.0,25.6,0000.0,0006.00,0003.30,0002.73
2022-07-04 11:42:00,,0825.1,5.00,0.00,30.1,29.1,00.0,38.9,32.0,25.6,0000.0,0005.94,0003.29,0002.74
2022-07-04 11:43:00,,0825.1,4.99,0.00,30.1,29.1,00.0,38.9,32.0,25.6,0000.0,0005.74,0003.29,0002.73
2022-07-04 11:44:00,,0825.1,5.00,0.00,30.1,29.1,00.0,38.9,32.0,25.6,0000.0,0005.51,0003.31,0002.75
2022-07-04 11:45:00,,0825.2,4.99,0.00,30.1,29.1,00.0,38.9,32.0,25.6,0000.0,0005.48,0003.30,0002.76
2022-07-04 11:46:00,,0825.2,5.00,0.00,30.1,29.1,00.0,38.9,32.0,25.5,0000.0,0005.33,0003.29,0002.77
2022-07-04 11:47:00,,0825.2,5.00,0.00,30.1,28.6,00.0,38.9,31.9,25.4,0000.0,0005.41,0003.31,0002.77
2022-07-04 11:48:00,,0825.2,5.00,0.00,30.1,27.8,00.0,38.8,31.8,25.5,0000.0,0005.70,0003.33,0002.77
2022-07-04 11:49:00,,0825.2,4.99,0.00,30.0,27.5,00.0,38.8,31.7,25.5,0000.0,0006.47,0003.33,0002.77
2022-07-04 11:50:00,,0825.2,4.99,0.00,29.9,27.5,00.0,38.8,31.5,25.6,0000.0,0007.06,0003.34,0002.78
2022-07-04 11:51:00,,0825.2,5.00,0.00,29.8,27.6,00.0,38.8,31.4,25.8,0000.0,0007.01,0003.33,0002.79
2022-07-04 11:52:00,,0825.2,5.00,0.00,29.8,27.6,00.0,38.7,31.4,25.8,0000.0,0006.99,0003.32,0002.80
2022-07-04 11:53:00,,0825.2,5.01,0.00,29.7,27.8,00.0,38.7,31.4,25.9,0000.0,0007.10,0003.33,0002.79
2022-07-04 11:54:00,,0825.2,5.00,0.00,29.7,27.9,00.0,38.7,31.4,26.0,0000.0,0007.05,0003.31,0002.78
2022-07-04 11:55:00,,0825.2,5.00,0.00,29.7,28.0,00.0,38.7,31.5,26.1,0000.0,0006.79,0003.29,0002.77
2022-07-04 11:56:00,,0825.2,4.99,0.00,29.7,28.1,00.0,38.6,31.5,26.1,0000.0,0006.55,0003.27,0002.76
2022-07-04 11:57:00,,0825.2,5.00,0.00,29.7,28.2,00.0,38.6,31.5,26.2,0000.0,0006.54,0003.27,0002.75
2022-07-04 11:58:00,,0825.2,5.00,0.00,29.7,28.3,00.0,38.6,31.5,26.2,0000.0,0006.28,0003.23,0002.76
2022-07-04 11:59:00,,0825.3,5.00,0.00,29.7,28.3,00.0,38.6,31.5,26.2,0000.0,0006.47,0003.22,0002.76
